Regional Weather Roundup
Issued by NWS

Home | Current Version | Previous Version | Text Only | Print | Product List | Glossary Off
Versions: 1 2 3 4 5 6 7 8 9 10 11 12 13 14 15 16 17 18 19 20 21 22 23 24 25 26 27 28 29 30 31 32 33 34 35 36 37 38 39 40 41 42 43 44 45 46 47 48 49 50

570
ASUS44 KLIX 300007
RWRLA
LOUISIANA WEATHER ROUNDUP
NATIONAL WEATHER SERVICE NEW ORLEANS LA
700 PM CDT SUN MAR 29 2015

NOTE: "FAIR" INDICATES FEW OR NO CLOUDS BELOW 12,000 FEET WITH NO
      SIGNIFICANT WEATHER AND/OR OBSTRUCTIONS TO VISIBILITY.
      SKY/WX - SKY CONDITION AND SIGNIFICANT WEATHER.
      TMP - AIR TEMPERATURE.    DP   - DEWPOINT TEMPERATURE.
      RH  - RELATIVE HUMIDITY.  PRES - PRESSURE.
      HX  - HEAT INDEX.         WCI  - WIND CHILL INDEX.

*  THESE STATIONS ARE NOT NWS OR FAA STATIONS AND ARE NOT UNDER
   NWS QUALITY CONTROL.

LAZ040-048-061>063-065-066-069-300100-
SOUTHEAST LOUISIANA

CITY           SKY/WX    TMP DP  RH WIND       PRES   REMARKS
N.O. AUDUBON     N/A     73  66  80 MISG        N/A
6HR MIN TEMP:  72; 6HR MAX TEMP:  80;

N.O. INTL ARPT PTCLDY    71  61  70 S12       30.19S
6HR MIN TEMP:  71; 6HR MAX TEMP:  77;

N.O. LAKEFRONT CLEAR     73  60  63 S16       30.20R
6HR MIN TEMP:  73; 6HR MAX TEMP:  78;

SLIDELL        CLOUDY    71  62  73 S10       30.19S
6HR MIN TEMP:  71; 6HR MAX TEMP:  75;

BATON ROUGE    CLEAR     74  56  53 SW15      30.17R
6HR MIN TEMP:  74; 6HR MAX TEMP:  81;

BOOTHVILLE     PTCLDY    70  62  76 SE12      30.23F
6HR MIN TEMP:  70; 6HR MAX TEMP:  74;

BELLE CHASSE   CLEAR     70  61  73 S12       30.20S
6HR MIN TEMP:  70; 6HR MAX TEMP:  76;

BOGALUSA*        N/A     71  59  65 S8G17     30.21R
6HR MIN TEMP:  71; 6HR MAX TEMP:  78;

GALLIANO*      MOCLDY    74  62  67 S5        30.21S
6HR MIN TEMP:  74; 6HR MAX TEMP:  78;

NEW ROADS*     FAIR      73  57  56 S10       30.16S
6HR MIN TEMP:  73; 6HR MAX TEMP:  80;

GONZALES*      FAIR      74  58  58 S8        30.18S
6HR MIN TEMP:  74; 6HR MAX TEMP:  80;

HAMMOND*       PTCLDY    73  61  64 SE6       30.19S
HOUMA*         NOT AVBL
PORT FOURCHON* NOT AVBL

$$

LAZ041-044-053-054-300100-
SOUTHWEST LOUISIANA

CITY           SKY/WX    TMP DP  RH WIND       PRES   REMARKS
LAKE CHARLES   CLEAR     72  61  68 SW13G18   30.15S
6HR MIN TEMP:  72; 6HR MAX TEMP:  78;

LAFAYETTE      MOCLDY    73  61  65 S16       30.17S
6HR MIN TEMP:  73; 6HR MAX TEMP:  79;

PATTERSON      CLEAR     72  57  60 S9        30.21R
6HR MIN TEMP:  72; 6HR MAX TEMP:  77;

SALT POINT       N/A     69  64  84 VRB3      30.18S
6HR MIN TEMP:  69; 6HR MAX TEMP:  75;

NEW IBERIA     CLEAR     73  61  65 S13       30.19S
6HR MIN TEMP:  73; 6HR MAX TEMP:  79; 6HR PCP: TRACE;

CHENAULT AIRPK NOT AVBL

$$

LAZ027-028-300100-
CENTRAL LOUISIANA

CITY           SKY/WX    TMP DP  RH WIND       PRES   REMARKS
FORT POLK      PTCLDY    74  59  58 S16       30.11R
6HR MIN TEMP:  74; 6HR MAX TEMP:  80;

ALEXANDRIA INT CLEAR     75  57  53 S17G29    30.09R
6HR MIN TEMP:  75; 6HR MAX TEMP:  82;

ALEXANDRIA     CLEAR     74  56  53 SW16G23   30.11R
6HR MIN TEMP:  72; 6HR MAX TEMP:  81;


$$

LAZ001-002-300100-
NORTHWEST LOUISIANA

CITY           SKY/WX    TMP DP  RH WIND       PRES   REMARKS
SHREVEPORT     CLEAR     80  55  42 S16G23    30.01S
6HR MIN TEMP:  78; 6HR MAX TEMP:  84;

BARKSDALE AFB  CLEAR     79  56  45 S17G23    30.00F
6HR MIN TEMP:  77; 6HR MAX TEMP:  83;

DTN SHREVEPORT CLEAR     78  54  43 S18       30.00F
6HR MIN TEMP:  76; 6HR MAX TEMP:  82;


$$

LAZ014-016-300100-
NORTHEAST LOUISIANA

CITY           SKY/WX    TMP DP  RH WIND       PRES   REMARKS
MONROE         CLEAR     79  56  45 S12G24    30.04S
6HR MIN TEMP:  74; 6HR MAX TEMP:  81;

TALLULAH       CLEAR     77  55  46 S14G21    30.08S
6HR MIN TEMP:  70; 6HR MAX TEMP:  79;


$$




USA.gov is the U.S. government's official web portal to all federal, state and local government web resources and services.